Temp
23 23 23 24 24 23 24 25 25 25 25 25 25 25 25 25 25 24 24 24 24 24 24 24 25 25 25 25 25 25 25 24 22 25 25 24 25 24 24 22 22 22 22
23 23 23 24 24 24 24 24 25 24 25 25 25 25 25 25 25 24 24 24 24 24 24 24 24 24 24 24 24 25 25 25 24 24 25 25 25 24 24 24 23 22 22
23 23 23 23 23 24 24 24 24 24 25 25 25 25 25 25 24 24 24 24 24 24 24 24 24 24 24 24 24 24 24 25 25 24 24 25 25 24 23 22 22 22 22
23 23 23 24 23 24 24 24 24 25 25 25 25 25 25 25 24 24 24 24 24 24 24 24 24 24 24 24 24 24 24 24 24 24 24 25 24 24 23 23 22 21 21
23 23 23 24 24 24 24 25 25 25 25 25 25 25 25 24 24 24 24 24 24 24 24 24 24 24 24 24 24 24 24 24 24 23 23 23 23 23 23 24 22 23 22
24 24 24 24 24 24 24 25 25 25 26 25 25 25 25 24 24 24 24 24 24 24 24 24 24 24 24 24 24 24 24 24 24 23 23 23 23 23 23 24 23 21 19
24 24 24 25 25 25 25 25 26 26 26 25 25 25 25 24 24 24 23 23 23 23 24 24 24 24 24 24 24 24 24 24 24 23 23 23 23 23 23 23 23 22 22
24 25 25 25 25 25 26 26 25 26 26 26 25 25 24 24 24 23 23 23 23 23 23 24 24 24 24 24 24 24 24 24 24 24 24 24 24 24 23 23 22 22 22
24 24 25 26 26 26 25 26 25 24 24 24 24 24 24 23 23 22 22 22 22 22 22 23 23 24 24 24 24 24 24 23 23 23 23 23 23 23 22 22 21 20 20
25 25 27 27 26 26 26 25 25 24 24 23 23 22 22 22 22 21 21 21 21 21 22 22 22 22 23 23 23 23 22 22 22 22 22 22 21 21 21 21 21 19 19
26 26 26 26 26 26 25 24 24 23 23 22 22 22 21 21 21 21 21 21 20 21 21 21 21 22 22 23 22 21 21 21 20 20 20 20 19 19 19 19 19 19 19
23 26 26 25 25 25 24 23 23 22 23 22 21 20 20 20 20 20 20 20 20 20 20 21 21 20 20 20 19 20 20 19 19 18 18 18 17 17 18 18 18 18 18
22 25 25 24 24 23 23 22 21 21 22 21 20 19 19 20 20 20 19 19 19 19 19 20 19 18 18 18 18 18 18 18 17 16 15 15 14 15 15 16 17 16 16
23 24 24 23 23 23 22 22 22 21 21 20 20 19 21 20 19 19 19 19 19 18 18 18 18 18 17 17 17 17 16 16 15 14 13 14 14 14 14 13 13 14 14
22 23 22 23 22 21 21 20 21 21 21 21 20 20 19 19 19 19 19 19 19 19 18 17 17 17 16 16 15 15 14 14 15 14 13 13 13 13 12 12 12 11 11
20 20 21 21 20 20 20 19 19 19 20 20 20 20 19 19 19 19 19 19 19 19 18 18 17 17 16 15 15 14 14 14 14 14 13 13 13 12 11 11 12 11 11
20 21 21 21 20 20 20 20 18 17 18 18 18 18 18 19 19 19 18 18 18 18 19 18 18 17 17 16 16 15 14 14 14 14 14 13 13 12 12 12 12 11 11
22 22 22 21 21 20 20 20 19 18 17 16 16 17 17 17 17 17 17 17 17 18 19 18 18 18 17 17 16 16 15 14 14 14 14 14 13 13 12 12 12 11 11
21 22 22 22 21 21 20 19 19 18 18 17 16 16 16 16 16 17 17 18 18 19 19 19 19 18 18 17 17 16 16 15 15 15 14 14 14 13 13 12 12 12 12
19 20 20 21 21 19 19 19 19 18 18 18 17 18 16 15 16 17 18 19 19 19 19 20 20 19 19 18 18 17 17 16 16 16 15 15 15 14 14 14 14 14 13
18 20 20 22 22 21 21 20 20 19 19 18 19 19 19 18 18 18 19 19 19 19 19 19 19 19 19 18 18 18 17 17 17 17 16 16 15 15 14 14 14 14 14
19 21 21 21 22 21 21 21 20 20 20 19 19 19 19 19 19 19 19 19 20 20 20 19 19 19 19 19 18 18 18 17 17 17 16 16 16 16 15 15 15 14 14
19 20 20 21 21 22 21 21 21 20 20 20 20 19 19 19 19 19 20 20 20 19 19 19 19 18 18 18 19 18 18 18 18 18 17 17 16 16 16 16 16 16 15
18 19 19 20 20 21 21 21 20 20 20 20 20 19 20 20 20 19 19 19 19 20 20 20 20 19 18 18 19 19 19 19 18 18 18 17 17 17 16 16 16 16 16
18 19 19 20 20 20 20 20 19 20 20 20 20 21 21 21 20 21 21 21 20 20 20 20 20 19 18 18 18 19 20 19 19 19 19 18 18 18 18 18 18 18 17
18 19 19 19 20 20 19 19 20 20 20 21 21 22 21 21 21 21 22 21 21 21 21 21 20 20 19 18 19 19 19 19 19 19 19 19 18 18 18 18 18 18 18
Height
784 787 791 795 800 805 807 808 810 810 812 813 814 816 818 820 822 824 825 826 826 827 827 828 828 828 829 829 829 828 827 825 827 828 826 826 826 829 830 831 833 833 833
781 783 786 790 795 800 802 804 807 808 808 810 811 813 815 817 818 820 821 822 823 825 826 827 826 826 826 827 827 827 827 826 825 824 823 824 826 827 827 828 828 828 829
777 781 783 786 791 794 797 800 803 805 805 806 807 809 810 812 815 817 817 819 821 822 823 824 824 824 825 825 825 825 826 826 825 824 824 824 825 825 825 826 826 826 826
771 776 779 781 786 790 792 795 797 799 801 801 802 803 804 806 808 812 813 814 815 816 817 819 820 820 822 822 823 823 823 823 823 823 823 824 823 823 823 822 822 822 822
766 772 774 777 781 785 788 790 792 794 795 797 798 799 800 801 803 805 807 809 810 811 812 814 814 815 817 819 819 819 819 818 819 820 820 820 820 819 819 819 819 819 818
761 764 770 774 777 780 783 786 788 790 791 793 795 796 797 798 798 800 802 804 805 806 807 808 809 810 811 813 814 814 815 815 815 816 816 816 816 817 816 816 815 815 815
753 758 763 769 772 775 776 780 783 784 788 791 791 792 793 794 796 797 797 798 799 801 802 802 803 805 807 808 808 808 809 809 810 811 812 811 811 811 812 812 810 809 807
748 751 756 761 765 769 773 775 776 778 781 785 786 789 791 791 792 793 793 793 794 794 795 795 796 797 799 801 802 803 804 804 805 805 805 805 805 805 805 805 804 803 802
743 747 751 756 760 763 767 772 774 776 778 780 781 785 786 787 788 789 790 789 789 789 789 789 790 791 793 796 797 798 798 799 800 801 800 800 801 800 799 798 797 798 795
737 742 747 751 758 761 765 767 770 773 775 777 778 781 783 785 784 786 787 786 784 784 785 784 785 786 788 789 791 792 793 793 794 794 795 795 795 795 794 793 792 791 790
744 739 744 748 753 759 762 765 768 771 773 774 777 778 778 779 781 782 783 782 781 779 779 779 780 781 783 784 784 786 788 789 789 789 789 789 790 789 788 788 787 786 784
749 741 740 746 750 755 759 763 765 768 770 773 775 776 777 778 778 779 780 779 779 777 776 777 778 779 780 780 782 783 784 785 785 785 785 785 785 785 784 784 783 781 780
743 736 735 741 745 750 758 760 764 767 768 772 774 775 776 776 776 776 777 777 777 776 776 776 777 778 780 780 780 780 781 782 782 783 784 784 784 783 781 779 778 776 774
729 725 730 735 743 747 751 756 759 761 765 768 771 772 773 775 775 775 775 775 775 775 775 776 777 778 778 778 779 779 779 780 780 781 782 782 782 780 778 776 774 772 770
710 715 726 731 738 743 748 752 756 758 760 762 765 767 769 771 771 772 772 772 774 774 775 776 777 778 778 778 778 779 779 779 779 779 780 780 779 777 776 775 774 773 771
709 717 721 732 738 742 745 750 753 757 759 759 761 763 765 767 769 769 770 771 773 774 775 776 776 777 777 778 778 778 779 779 779 780 780 780 780 778 777 777 776 775 773
711 721 727 736 737 741 742 746 749 754 756 759 761 761 763 763 763 765 766 768 770 772 773 775 776 776 777 778 778 779 780 781 781 782 782 782 782 781 780 779 778 777 776
716 719 726 731 733 738 740 742 744 746 750 754 758 759 761 762 761 762 764 766 769 771 772 773 776 777 777 778 779 779 781 782 783 782 783 783 782 782 782 781 781 780 779
714 711 711 716 723 731 736 740 741 747 748 749 754 758 759 761 762 760 761 764 766 768 769 770 772 774 775 776 777 778 779 781 782 782 782 783 783 783 782 782 782 782 779
706 710 711 709 719 727 730 736 739 742 748 749 748 752 756 758 759 758 756 759 763 764 765 766 768 770 772 773 774 775 776 777 779 779 780 782 782 782 783 783 782 782 781
706 710 713 712 715 722 727 733 736 739 742 746 747 746 749 751 754 756 754 754 757 760 762 763 764 766 768 770 771 773 774 775 775 777 778 779 780 780 781 781 782 781 780
705 708 711 713 714 718 723 727 734 737 738 742 745 747 745 746 749 751 751 749 752 755 758 759 760 761 763 764 767 769 772 773 774 775 776 776 776 777 778 779 778 778 778
705 707 710 710 713 717 722 727 732 734 735 739 740 744 740 742 743 744 746 746 747 751 753 755 755 756 758 760 761 763 765 767 768 770 771 773 773 774 775 775 775 775 775
702 704 706 708 713 718 721 724 728 731 732 733 735 739 737 736 739 739 739 741 743 745 747 749 750 750 752 754 756 757 759 762 765 766 768 768 768 769 770 771 771 771 771
697 700 702 707 712 713 718 719 724 726 727 727 729 731 730 732 732 733 734 735 735 738 740 741 744 745 746 749 751 753 754 756 759 761 762 763 763 762 763 764 764 764 765
696 697 702 706 709 711 714 716 717 719 719 721 722 724 725 726 726 727 728 729 728 731 733 735 737 739 741 743 746 748 750 751 752 754 755 755 757 757 756 756 757 758 758
Wind_Speed
39 40 36 36 33 29 25 23 20 21 18 21 18 21 14 14 16 14 13 11 10 10 9 10 14 9 9 8 6 8 7 5 3 3 8 8 11 15 15 16 15 16 15
39 37 39 38 37 34 34 31 27 19 20 23 20 20 17 13 17 17 14 12 11 10 11 12 12 10 12 11 8 9 5 5 4 4 3 8 14 14 15 16 16 18 18
36 34 35 35 35 35 34 32 31 28 22 21 18 20 19 17 18 18 16 15 15 14 14 13 14 13 14 13 12 10 8 7 5 6 6 6 13 14 18 19 20 19 19
34 34 33 35 35 35 33 33 31 32 30 26 25 24 22 20 20 20 19 20 19 18 17 17 16 15 15 15 15 15 14 13 10 10 11 10 9 11 20 21 21 23 24
33 31 33 33 33 33 32 32 31 30 31 34 29 26 23 22 22 20 20 20 20 21 20 19 20 17 16 15 16 17 15 14 14 13 12 9 7 9 15 21 23 24 25
32 35 33 31 33 34 34 34 33 31 28 31 33 29 26 24 23 22 20 21 22 23 23 22 22 20 19 18 18 16 17 19 18 16 16 14 15 13 14 16 21 17 7
34 33 32 34 34 36 36 35 30 34 30 27 27 27 26 23 22 20 20 22 23 23 23 23 23 23 20 20 18 12 11 15 22 22 22 23 21 21 20 19 20 20 24
31 36 37 36 36 36 32 30 32 26 22 23 26 25 25 23 20 18 18 19 21 22 21 20 20 23 22 20 17 17 17 16 14 17 21 23 20 20 20 20 21 23 24
30 34 38 38 37 35 32 29 24 17 16 17 17 18 18 17 16 14 14 15 17 18 18 18 20 20 19 18 19 19 19 16 14 15 18 20 19 20 20 19 21 19 12
30 35 35 32 31 30 27 24 19 15 14 12 12 12 12 12 12 13 13 14 16 18 18 18 20 21 22 20 19 19 18 16 15 14 14 16 16 16 15 16 19 19 15
30 32 30 28 27 25 21 19 17 16 14 11 11 11 10 11 12 12 13 13 15 14 13 12 15 16 15 15 17 15 12 12 10 11 12 13 11 9 9 7 8 10 15
35 30 26 26 24 21 20 18 18 18 16 13 12 11 12 11 9 10 10 8 6 6 7 9 10 9 8 6 4 6 6 6 6 5 6 6 6 8 11 12 13 13 13
39 34 29 25 24 21 19 18 17 14 14 16 15 14 14 11 10 8 9 8 6 6 5 6 10 7 6 7 5 4 2 2 1 2 4 6 11 13 14 15 15 14 16
38 32 30 28 23 21 20 19 18 16 14 14 14 14 15 13 10 8 8 7 6 5 10 9 9 11 11 9 6 3 2 1 2 3 4 5 7 9 10 11 11 13 12
32 31 30 29 27 23 20 19 16 15 14 15 17 16 19 16 14 11 9 9 7 8 13 15 15 15 12 8 7 7 7 8 8 8 7 7 9 10 12 13 12 11 9
21 24 28 27 25 23 20 15 15 12 10 9 14 16 16 13 11 11 11 9 9 11 13 15 14 12 11 10 10 10 10 10 10 10 10 10 11 13 14 15 14 13 12
25 24 23 24 25 23 21 20 18 12 11 11 13 12 11 12 11 10 10 13 13 15 14 15 14 12 11 10 10 9 9 8 9 9 9 10 10 11 12 13 12 12 11
23 29 29 29 28 26 24 23 19 19 16 12 11 11 11 11 12 13 13 14 14 13 14 13 14 13 13 12 11 10 10 8 8 8 7 7 8 9 9 9 9 8 9
29 35 37 35 34 31 27 22 18 17 17 15 15 14 13 13 15 16 15 13 13 11 9 11 16 18 17 14 12 11 10 8 6 6 5 4 4 5 7 7 7 7 8
26 22 21 26 27 26 27 27 22 20 17 17 19 20 18 16 17 19 17 15 13 9 3 9 11 18 20 17 14 12 12 11 8 7 5 6 4 4 5 5 4 4 3
27 26 17 14 21 25 26 27 28 25 23 22 22 19 19 22 22 20 18 16 15 12 8 6 10 13 19 20 16 15 14 14 11 11 11 8 9 8 7 6 5 5 6
24 19 14 17 21 25 24 22 23 27 26 26 26 23 20 22 21 20 19 17 16 14 14 14 15 14 16 21 19 17 16 17 14 13 13 12 11 10 10 10 10 11 12
18 15 14 13 20 19 17 16 20 21 27 27 26 27 25 27 25 24 20 17 17 18 17 16 14 16 16 20 18 19 19 18 15 12 13 14 16 16 15 17 16 17 18
22 24 20 16 16 17 17 21 23 25 23 26 27 27 25 26 27 26 23 20 18 19 21 20 18 15 19 18 20 22 19 16 13 13 17 18 18 17 20 20 20 22 22
23 24 21 20 18 17 20 24 26 26 21 27 25 26 29 29 29 26 21 20 19 20 23 24 21 18 15 18 19 19 18 18 18 16 17 20 22 23 23 20 19 19 20
26 23 21 20 19 18 26 27 26 22 21 26 25 23 26 29 28 27 23 21 21 24 23 23 22 15 18 17 19 19 19 19 19 21 22 22 24 25 27 27 24 22 21
Wind_Direction
203 207 210 215 218 222 222 222 225 230 234 231 217 217 207 212 220 227 229 247 252 252 259 272 270 278 278 280 281 289 312 280 209 274 231 244 218 216 226 221 226 228 234
208 207 211 217 221 225 229 233 229 227 225 226 223 211 215 223 216 227 236 238 245 262 263 261 272 275 275 275 289 281 292 308 266 276 288 235 231 233 232 231 234 235 238
209 210 211 215 220 222 227 231 229 225 221 221 213 215 217 217 213 221 233 237 243 251 258 262 268 266 271 269 271 262 261 265 267 277 277 251 236 243 229 234 242 242 250
205 210 212 214 219 222 228 231 231 228 226 225 225 224 221 224 229 235 240 242 243 248 253 256 262 262 263 268 272 267 260 261 262 264 268 266 244 239 230 233 241 242 245
200 205 214 219 220 223 226 232 231 230 230 230 230 229 231 228 230 235 242 248 255 257 256 259 258 259 259 262 267 271 267 272 271 262 256 261 257 230 229 244 247 256 252
199 207 212 216 220 222 226 231 237 239 238 237 234 235 231 233 239 243 246 248 248 252 258 260 258 259 255 260 261 271 266 268 272 256 261 257 264 258 265 262 254 251 260
200 208 212 218 223 228 229 229 235 240 241 246 239 237 235 236 240 243 247 250 253 256 257 260 255 255 251 253 258 262 271 275 261 262 266 269 272 276 278 275 263 256 255
199 206 214 221 226 230 237 237 237 242 245 244 235 233 236 237 241 242 250 252 253 255 256 253 255 253 249 248 255 258 267 270 271 268 268 274 282 289 282 280 277 275 272
202 207 213 220 224 228 230 235 235 224 220 228 240 238 234 236 241 239 238 244 252 255 257 252 245 244 242 241 249 259 263 262 263 266 267 272 276 279 282 285 280 269 258
201 209 214 218 223 223 220 223 227 225 226 224 222 223 233 239 240 246 249 249 255 260 260 252 243 240 240 247 252 250 255 262 267 269 267 267 275 285 289 282 280 266 256
236 213 207 208 214 219 214 217 224 224 219 212 225 230 229 238 246 251 253 253 252 256 258 246 238 235 238 246 240 236 242 254 265 279 287 294 301 295 288 299 291 277 268
272 220 204 207 204 211 214 209 216 214 206 206 203 216 223 226 236 242 235 226 229 252 240 231 217 206 198 182 201 218 233 252 278 300 325 354 332 312 302 301 297 296 285
253 218 198 197 195 196 202 195 187 193 197 206 214 218 227 229 231 221 222 226 234 237 219 185 164 158 154 152 143 155 175 276 291 347 327 318 311 310 310 304 299 294 291
220 199 188 182 183 184 190 195 193 197 214 229 226 220 225 221 213 212 208 201 201 209 177 161 152 144 144 136 132 106 20 77 69 55 27 2 345 339 346 345 340 336 333
182 178 179 177 176 172 179 186 197 209 219 231 230 234 209 212 216 216 214 205 198 158 146 144 146 141 137 130 116 108 97 92 86 75 63 52 43 38 35 26 23 19 19
158 158 161 168 168 170 176 178 194 200 210 214 203 203 208 217 216 220 209 188 174 167 160 157 153 151 144 138 122 107 92 86 87 89 83 71 61 53 48 47 46 44 36
154 165 167 173 176 179 178 184 184 193 207 216 216 212 216 219 210 219 208 195 188 174 170 169 165 160 150 145 136 130 123 111 106 99 87 77 69 68 69 70 58 53 49
181 175 184 194 194 199 200 203 203 198 194 199 199 198 203 199 182 166 158 160 169 179 178 183 184 178 168 160 154 148 139 131 129 119 108 93 82 80 84 81 72 67 60
209 190 193 196 199 208 208 205 199 202 200 189 188 192 188 191 186 172 169 178 182 190 204 206 208 199 191 177 167 163 161 158 156 156 153 140 124 117 110 104 94 74 79
209 211 200 186 201 200 203 204 204 202 203 198 195 202 198 197 204 198 185 189 201 201 221 217 207 206 201 192 183 181 176 175 179 182 191 202 183 171 157 144 136 125 117
206 204 197 167 185 194 205 206 211 207 208 210 213 201 205 208 214 214 206 207 213 217 210 200 204 206 212 209 196 199 207 204 206 209 207 210 212 213 207 211 225 245 263
190 195 200 199 187 180 184 189 208 214 209 216 222 218 207 212 220 219 222 216 216 222 231 231 241 233 217 209 209 211 215 222 223 231 232 233 233 231 235 244 254 262 265
196 196 200 181 188 191 196 200 207 210 214 216 223 219 210 217 221 221 221 217 220 232 231 240 243 234 224 220 225 225 219 229 228 228 237 241 243 246 248 255 262 271 272
206 194 181 177 183 200 214 223 222 223 216 216 219 226 219 220 228 231 230 229 233 242 241 239 242 250 232 229 234 228 226 237 233 233 238 241 249 253 251 254 262 269 268
207 200 197 198 204 209 217 221 227 229 229 220 223 232 235 230 232 233 233 231 230 237 242 241 240 242 239 228 234 224 234 232 234 239 245 250 255 260 253 249 259 269 262
212 211 212 215 219 233 223 222 223 227 237 235 232 238 229 230 232 232 234 236 233 240 236 232 230 239 232 228 225 233 232 230 233 238 242 246 252 260 261 257 259 255 255